Dewpoint
42 33 30 30 23 13 6 2 7 20 23 40 43 40 39 31 41 42 62 64 60 64 65 68 71 71 70 71 71 71 70 70 70 70 70 70 70 70 70 70 70 69 68 68 68 69 69 68 67
30 25 29 28 18 7 3 4 15 20 29 41 44 45 41 39 54 61 62 65 63 63 65 66 71 70 71 71 71 70 70 70 70 69 69 69 69 70 69 69 69 69 68 68 69 68 68 68 68
33 23 21 19 16 8 2 11 15 20 32 38 44 47 46 49 56 59 64 65 63 63 64 68 70 70 70 69 69 69 69 69 68 67 67 67 68 69 69 69 69 68 68 68 68 68 67 67 67
23 19 21 14 8 9 9 12 18 16 20 37 41 46 53 60 58 62 64 65 64 62 66 69 69 69 69 69 69 68 68 67 67 68 68 68 69 69 69 68 68 68 68 68 68 68 68 67 67
20 15 12 12 11 9 12 13 15 15 16 26 39 42 53 61 62 64 64 65 65 66 67 67 68 68 68 68 68 67 67 67 67 67 67 67 67 65 64 64 64 64 64 65 65 66 66 66 67
17 14 10 8 5 10 14 15 15 15 18 20 36 39 54 62 62 64 64 65 66 67 67 67 67 67 67 66 66 66 66 66 66 66 66 64 63 62 62 62 61 61 60 61 61 61 61 61 60
17 12 11 9 8 9 12 16 16 16 21 27 34 38 56 61 63 64 64 65 66 66 66 66 66 66 64 64 64 64 64 64 64 63 63 63 62 61 61 60 60 59 58 58 57 57 57 57 57
23 14 10 9 9 8 11 15 16 17 24 39 41 38 47 61 64 64 64 65 65 65 65 65 65 64 63 61 62 62 62 62 62 62 61 60 60 60 59 59 58 58 57 56 54 53 53 54 52
25 19 13 10 10 11 12 14 16 22 25 35 43 44 53 63 64 64 64 64 64 64 65 65 63 63 62 61 60 60 60 60 60 60 59 56 53 54 56 57 56 55 54 53 52 50 47 48 50
23 19 17 17 17 14 13 15 15 18 20 25 32 45 55 61 63 63 63 62 63 63 63 63 62 61 60 57 57 57 55 53 50 50 51 49 50 51 50 53 54 52 51 50 46 43 43 44 39
27 23 22 22 23 23 19 19 18 18 15 17 23 34 50 57 60 62 62 62 63 62 61 60 61 60 58 54 54 51 46 46 48 49 49 50 50 48 47 48 48 47 46 43 43 41 39 43 42
26 26 25 25 25 25 23 24 23 23 21 19 21 24 36 51 55 60 61 61 62 61 60 58 58 58 55 51 49 45 45 47 48 49 50 49 47 46 43 40 41 39 38 39 37 37 40 40 41
23 24 23 24 25 26 25 24 24 25 25 25 24 23 26 42 49 55 59 60 61 60 59 56 56 57 52 48 43 43 44 46 47 50 49 46 44 45 41 41 37 36 35 35 36 35 36 36 39
27 25 25 25 23 23 24 25 24 24 24 22 23 25 25 28 38 45 54 58 59 58 58 56 54 55 51 45 45 45 45 47 47 47 48 47 43 43 41 38 35 34 34 35 36 38 35 36 37
29 27 27 26 23 22 23 21 21 22 21 21 24 25 27 29 29 32 43 53 56 57 58 55 53 54 51 45 46 46 45 46 45 46 48 45 43 42 39 37 34 34 38 40 38 37 37 36 36
28 26 24 24 23 22 22 19 19 21 23 23 25 25 26 27 29 33 38 46 51 55 57 55 52 52 50 47 47 43 44 43 44 45 45 44 43 41 38 36 36 37 37 37 36 36 35 35 36
24 22 21 21 23 23 22 20 20 23 24 23 23 23 23 23 26 30 36 42 49 54 56 55 52 51 50 48 46 44 45 43 42 42 43 44 42 40 37 37 39 38 37 37 35 36 36 35 35
18 18 19 19 21 22 22 21 21 22 22 22 22 23 24 22 23 26 32 40 47 53 56 55 52 51 52 49 46 44 45 42 42 41 42 43 41 41 38 38 40 36 36 37 38 38 36 34 35
20 19 18 19 19 18 19 20 21 23 22 22 23 24 26 26 25 23 28 40 47 54 56 54 52 51 50 48 45 44 42 42 41 41 44 42 41 40 39 38 39 37 38 39 40 37 37 34 35
22 21 19 20 21 22 22 21 23 22 22 22 22 23 23 24 25 24 23 40 49 53 56 54 51 50 50 48 45 43 42 41 41 42 42 41 41 40 38 37 37 37 39 40 40 38 35 34 36
21 22 22 21 22 22 22 20 20 20 17 20 21 21 22 28 29 27 26 42 51 53 55 53 51 50 50 46 44 42 42 42 41 42 42 41 40 38 38 38 38 39 38 38 38 37 37 33 34
19 20 20 20 20 18 21 15 16 15 17 19 20 28 31 32 33 33 33 42 51 53 53 53 52 50 49 46 43 42 40 40 40 41 40 40 39 38 38 38 39 38 37 37 36 37 36 33 32
18 19 19 19 18 18 17 16 16 16 15 16 23 30 32 33 34 35 36 36 49 51 53 54 53 51 50 48 44 43 41 40 40 40 41 39 39 38 37 38 39 38 37 39 37 36 34 33 30
15 16 16 17 17 16 17 15 14 14 14 16 28 30 33 33 35 36 36 40 44 49 53 54 53 50 49 48 46 44 43 40 40 40 40 38 37 37 37 38 38 38 37 35 34 34 34 33 31
14 14 12 9 12 13 13 11 12 22 27 29 30 30 33 34 35 35 36 38 42 46 52 53 52 49 48 48 47 46 45 42 40 40 38 37 35 35 36 36 37 37 35 33 33 33 33 32 31
15 13 11 7 6 6 9 9 10 25 30 30 30 30 31 31 34 35 36 38 39 44 47 50 50 48 47 48 47 47 46 42 41 39 37 36 36 37 37 36 35 33 32 31 31 30 31 32 31
20 17 17 15 13 12 11 11 24 29 29 29 27 28 29 31 33 34 36 38 38 40 43 47 48 46 46 46 47 45 44 42 40 39 38 36 36 36 36 36 34 32 30 29 28 28 29 29 29
25 30 25 23 21 16 12 10 9 21 26 27 26 26 28 30 33 34 35 37 38 39 41 46 47 44 44 44 43 42 42 41 39 38 36 36 35 36 34 33 31 30 29 27 26 26 27 26 25
15 24 32 30 27 24 20 17 29 31 32 30 26 25 24 30 32 33 35 37 38 39 41 42 42 41 41 41 40 39 39 38 36 36 35 35 35 33 32 30 28 27 27 25 25 24 24 22 21
14 18 22 25 22 23 24 20 35 34 34 29 29 25 23 29 31 33 35 36 37 38 39 40 39 39 39 39 38 38 37 37 36 35 35 35 34 32 31 30 28 27 25 23 21 18 20 19 18
Wind_Speed
12 12 13 10 10 11 20 14 8 4 8 9 6 7 9 13 8 2 4 3 19 22 20 19 18 19 19 18 17 15 14 13 12 11 10 9 8 6 6 5 4 5 5 5 5 4 4 3 3
13 6 10 11 12 20 19 10 8 5 8 5 4 6 8 4 11 10 10 7 16 21 19 19 18 19 19 19 18 16 16 14 13 13 12 11 10 7 5 4 3 1 5 5 6 4 4 3 2
13 10 14 16 20 20 16 7 7 4 1 5 3 4 3 5 7 10 13 17 13 20 20 20 18 19 19 19 19 19 17 16 15 13 10 10 10 10 5 3 2 1 2 3 3 4 4 4 2
8 13 11 14 20 15 9 4 3 7 8 5 6 4 3 7 6 8 16 19 12 18 20 20 17 18 18 16 15 14 14 12 10 9 9 8 7 6 6 3 3 3 4 3 2 3 4 2 1
12 12 18 22 20 13 4 9 3 9 8 7 9 8 1 5 11 15 16 17 16 11 19 18 16 15 15 14 13 12 11 10 8 8 9 9 10 9 8 8 9 9 9 8 7 5 5 4 2
15 14 19 21 19 7 6 3 8 9 8 10 7 14 5 11 12 14 16 15 14 14 15 17 15 15 14 14 14 13 13 13 14 13 14 13 12 13 12 11 11 11 11 10 10 9 8 7 6
17 19 21 23 19 8 9 7 11 7 10 8 8 11 6 12 14 14 15 15 14 15 14 15 15 14 14 14 15 15 16 16 16 17 16 16 15 14 13 12 11 11 11 10 9 8 7 6 6
16 19 24 23 14 14 1 3 7 11 3 5 6 5 8 16 18 16 16 15 15 14 14 15 16 16 14 14 14 16 17 16 16 16 17 17 15 14 12 14 10 10 9 8 7 6 4 3 3
14 19 23 22 15 9 4 8 5 9 13 6 5 4 8 20 18 17 15 14 14 14 16 17 17 16 15 14 14 15 15 16 16 14 14 15 10 10 9 11 8 8 8 6 4 2 0 5 6
16 20 22 15 14 10 9 7 13 6 16 14 9 6 10 17 19 20 18 16 17 18 19 19 19 18 17 15 15 13 13 13 12 11 12 8 6 6 11 8 6 6 5 5 3 2 5 9 5
19 23 22 21 7 12 11 14 13 11 16 13 9 13 14 16 18 19 20 20 20 20 20 20 19 18 18 15 15 12 12 10 10 10 10 7 7 8 8 8 8 5 5 5 5 0 4 6 7
24 21 21 19 20 10 16 16 14 13 16 19 6 5 7 14 16 20 22 23 23 23 22 21 20 19 17 14 14 13 12 11 11 11 9 9 8 7 5 4 5 4 4 2 3 5 4 4 5
20 21 24 23 16 19 19 21 22 21 20 17 15 12 13 15 18 18 20 21 23 25 23 22 21 20 17 15 14 13 13 13 11 12 10 9 7 6 5 5 3 3 5 5 3 4 5 3 5
19 22 20 21 22 22 22 24 23 26 23 19 14 22 20 20 19 18 20 22 25 23 24 23 23 20 18 18 16 14 14 13 13 11 10 8 7 7 7 6 6 5 4 5 5 4 3 3 3
19 23 25 26 22 25 21 26 25 28 22 12 15 14 16 20 22 23 22 23 25 23 24 25 23 22 21 18 17 16 14 15 13 11 11 8 8 7 7 6 5 5 5 4 3 3 3 3 4
18 22 25 24 19 10 7 21 18 5 10 14 15 13 14 16 18 21 22 23 24 24 26 26 23 24 23 20 19 16 16 14 13 13 12 10 10 8 7 7 5 4 5 4 3 2 3 2 2
20 26 24 20 14 13 16 17 16 6 8 14 15 18 19 20 19 19 22 24 24 24 26 27 26 25 24 21 19 16 17 14 14 13 12 11 10 8 7 7 6 5 5 4 3 5 2 3 2
21 22 22 21 15 13 19 24 21 22 19 24 25 20 22 23 22 21 20 21 23 21 24 27 25 25 23 20 17 16 16 14 14 13 12 13 10 9 8 7 6 5 5 5 5 3 4 3 1
26 29 29 27 24 25 30 31 28 26 30 30 26 23 24 25 24 24 22 19 23 23 27 28 28 26 24 23 22 20 20 16 14 12 14 12 11 10 8 8 7 5 5 5 3 4 3 5 0
24 29 32 30 26 27 31 37 30 26 28 31 30 29 29 27 27 24 23 18 24 25 29 30 31 30 28 23 21 20 19 17 15 14 14 12 12 12 9 8 7 6 7 5 4 1 5 5 4
28 28 30 33 27 30 29 45 35 39 30 4 11 12 14 11 13 9 14 18 21 25 29 29 31 31 29 26 22 20 18 17 17 17 15 13 11 9 9 8 7 5 5 5 4 3 2 5 4
37 22 28 29 28 26 18 40 28 25 14 18 14 4 0 5 9 13 15 14 18 20 23 25 29 30 29 27 26 26 24 24 20 19 16 14 12 10 9 8 7 5 5 5 5 5 4 2 4
37 24 28 28 30 30 42 27 48 26 32 30 16 8 3 4 6 8 12 16 17 19 20 21 23 24 24 25 23 23 22 19 19 19 20 16 13 11 10 9 8 6 6 7 7 7 7 7 5
18 19 23 24 27 29 56 25 35 30 27 24 14 5 1 1 3 5 7 9 6 12 14 19 21 22 21 21 20 23 21 21 21 20 19 17 15 13 11 9 8 8 8 7 7 8 8 8 7
13 14 16 23 30 37 38 30 26 2 4 2 6 2 0 3 4 3 3 6 4 7 8 8 16 19 19 17 16 17 18 19 23 22 19 19 18 16 13 10 7 8 8 7 6 8 7 7 7
18 19 25 23 29 34 27 33 25 9 9 8 3 2 2 7 5 4 3 3 2 4 7 7 8 16 15 14 12 17 15 16 18 18 16 14 14 15 16 14 11 9 6 7 7 5 7 6 7
13 27 29 34 37 38 39 42 9 11 11 10 9 4 1 3 4 6 8 6 2 4 8 12 12 10 12 15 12 15 17 20 17 17 16 16 18 17 19 16 13 10 6 5 6 5 6 5 5
19 16 14 14 16 40 34 39 39 26 21 9 10 6 3 2 2 3 5 5 3 2 3 7 13 14 12 14 18 17 19 19 20 19 19 17 17 18 18 17 13 9 7 6 6 6 4 5 4
26 15 4 5 8 10 13 26 12 9 5 5 4 3 3 2 1 2 3 3 3 4 7 9 13 16 16 15 16 19 20 21 21 20 19 17 17 19 17 15 12 10 7 7 5 5 5 6 6
32 27 27 16 8 13 12 16 10 2 8 6 4 4 4 3 3 2 2 2 4 5 8 10 12 13 13 16 20 21 20 20 20 21 20 18 17 18 16 16 12 9 8 7 6 5 6 6 6
Wind_Direction
259 231 237 242 242 233 256 235 280 227 207 37 334 282 321 317 343 225 109 102 136 133 144 159 148 145 148 151 154 160 161 160 156 149 143 142 139 132 119 114 138 165 154 174 173 171 121 114 103
255 242 241 266 250 253 250 165 197 72 3 348 296 264 264 264 80 109 137 154 152 137 154 153 148 146 150 151 154 161 163 163 158 158 161 161 151 140 139 131 124 163 178 160 132 113 110 87 54
260 253 267 235 237 257 280 60 211 90 236 267 253 295 0 41 78 125 111 149 166 145 161 140 150 151 156 159 164 171 166 164 166 165 165 163 159 149 142 140 155 211 69 147 143 121 98 81 47
247 228 243 257 258 249 275 43 287 301 235 227 268 234 122 29 120 126 135 147 161 154 126 140 147 140 137 135 132 137 138 141 128 114 109 112 103 113 121 115 64 75 43 51 94 110 100 96 51
237 263 263 254 257 262 283 283 308 270 278 261 230 247 113 116 103 130 148 148 147 114 120 142 133 136 134 131 130 133 142 147 150 135 133 127 114 106 102 95 83 70 66 63 63 67 72 74 59
258 244 266 259 256 190 250 236 262 257 268 265 250 247 124 123 134 149 147 143 127 128 135 141 136 132 134 141 143 147 144 139 130 129 121 115 113 108 104 99 94 86 75 74 71 69 65 62 61
257 268 259 278 289 286 247 160 257 272 273 271 209 258 110 154 140 157 154 147 140 132 138 143 147 140 134 132 131 128 123 123 118 113 112 112 109 106 105 100 95 91 86 79 78 71 65 64 53
265 276 272 267 266 281 108 198 226 259 340 36 306 247 191 158 148 155 159 151 145 148 150 161 160 159 154 141 120 119 119 120 118 121 122 120 118 123 128 122 101 102 94 82 76 78 72 59 70
256 263 263 262 262 261 162 244 219 286 271 180 175 278 43 132 149 160 165 150 161 162 176 168 163 163 156 146 135 125 130 131 130 134 143 157 152 160 153 75 106 97 94 89 70 51 38 234 228
239 251 256 300 328 303 291 253 275 270 245 229 201 148 124 147 166 171 171 175 176 180 181 174 172 167 164 159 162 159 157 164 168 165 169 195 154 75 115 114 133 123 134 148 145 229 244 242 259
245 254 272 301 285 285 251 252 252 266 260 270 260 174 174 177 180 189 191 189 184 185 186 184 180 170 176 157 168 166 176 166 163 161 172 137 150 152 178 154 169 159 193 192 193 224 24 19 341
252 258 274 275 293 278 272 274 270 253 267 288 283 286 230 202 199 198 201 195 193 192 192 187 181 176 182 166 174 169 167 167 164 161 159 159 176 174 167 145 139 153 72 15 31 66 44 37 38
270 267 271 273 275 268 279 272 268 263 263 259 256 242 249 216 220 208 209 204 205 197 191 191 183 180 178 178 176 176 163 170 151 158 169 176 162 151 159 133 122 91 121 105 61 60 44 48 60
278 288 282 282 270 263 264 270 267 257 254 254 260 251 232 235 225 219 205 209 216 202 189 190 188 183 178 186 167 167 173 145 167 158 160 160 154 158 149 153 135 121 98 101 104 93 74 65 64
273 271 273 264 261 261 263 263 260 255 249 257 250 243 248 249 248 230 217 214 214 205 189 190 189 185 182 180 174 177 163 170 161 149 154 153 149 162 145 138 137 124 118 136 128 147 130 129 135
264 265 269 270 248 277 247 261 277 133 189 225 227 244 246 249 247 249 233 213 218 200 191 188 189 187 187 177 176 176 166 166 158 156 151 155 148 153 157 146 138 137 132 129 102 51 100 73 103
246 258 266 283 198 225 211 267 275 176 228 238 241 250 248 248 244 239 240 227 212 203 193 187 192 187 189 178 180 173 170 165 161 156 150 152 148 158 154 142 140 170 134 109 101 90 31 114 111
260 253 255 251 255 248 251 260 261 266 252 255 264 259 255 253 244 244 234 234 212 201 193 186 190 187 188 173 178 172 173 164 159 162 154 154 148 151 157 140 145 160 136 120 91 97 82 56 59
268 276 273 273 279 278 272 270 268 268 267 265 264 257 252 251 248 241 239 218 217 196 188 184 190 188 187 180 179 175 177 166 166 158 151 156 152 152 161 145 147 139 121 97 131 138 111 82 350
264 267 265 271 269 268 275 273 268 263 268 264 264 262 261 254 249 241 228 202 207 204 192 189 193 189 190 186 184 179 172 170 161 151 162 156 158 159 162 153 150 138 129 118 108 164 145 100 35
257 258 274 277 286 281 285 277 270 260 270 277 255 261 275 335 332 289 230 197 200 208 195 196 197 193 192 188 182 176 167 164 161 164 162 160 157 154 144 145 135 141 137 118 101 76 340 146 93
268 263 270 274 272 269 268 277 274 286 236 210 215 144 298 346 335 326 309 214 202 210 205 199 199 197 195 192 186 182 178 176 174 170 163 154 148 142 132 127 128 123 112 108 92 58 41 326 127
268 281 276 273 274 285 268 249 275 263 259 260 180 156 147 15 351 324 306 289 197 205 210 193 199 199 193 198 193 183 184 180 169 167 152 148 141 134 128 123 118 112 99 80 77 66 57 56 73
286 280 272 271 258 257 257 253 261 265 263 230 131 164 148 104 14 334 318 307 248 198 204 188 195 190 195 201 201 184 187 181 169 159 159 152 144 133 119 113 108 102 99 84 81 79 71 75 75
251 257 262 250 238 242 263 264 242 227 87 40 130 172 310 50 48 13 18 335 303 206 152 159 184 188 193 194 194 185 196 175 168 163 161 153 147 136 120 106 112 98 93 88 85 87 83 72 82
270 242 245 268 264 268 257 245 264 123 135 136 139 141 97 49 23 29 38 63 283 243 175 178 191 181 177 170 195 183 209 153 151 159 145 140 131 112 110 103 92 96 78 95 87 88 90 93 89
275 246 262 269 264 270 265 273 163 175 174 174 168 198 91 71 30 21 25 21 328 237 215 173 192 164 159 170 159 134 131 133 146 135 133 137 120 119 115 105 118 93 100 92 99 92 92 93 97
253 329 279 245 261 258 253 255 259 221 191 192 214 202 168 113 88 36 23 19 346 295 201 166 171 160 138 119 130 131 129 130 128 125 126 124 130 119 124 117 114 126 129 110 108 107 119 130 119
267 240 287 301 287 299 271 257 5 80 87 288 265 178 275 243 201 53 57 50 74 81 85 76 101 109 117 127 125 121 127 124 122 122 116 128 121 119 114 118 124 126 121 104 106 115 135 128 119
290 270 268 269 273 275 294 282 345 114 159 253 255 296 326 312 310 340 23 73 86 106 121 119 123 130 136 138 128 128 127 128 126 127 125 129 120 113 122 123 125 122 120 127 131 146 140 128 112